Regional Weather Roundup
Issued by NWS

Home | Current Version | Previous Version | Text Only | Print | Product List | Glossary Off
Versions: 1 2 3 4 5 6 7 8 9 10 11 12 13 14 15 16 17 18 19 20 21 22 23 24 25 26 27

000
ASUS45 KBOI 161210
RWRID
WEATHER ROUNDUP FOR IDAHO
NATIONAL WEATHER SERVICE BOISE ID
600 AM MDT WED APR 16 2014

NOTE: "FAIR" INDICATES FEW OR NO CLOUDS BELOW 12000 FEET
WITH NO SIGNIFICANT WEATHER AND/OR OBSTRUCTIONS TO VISIBILITY

IDZ012-014-161300-
SOUTHWEST IDAHO


CITY           SKY/WX    TMP DP  RH WIND       PRES   REMARKS
BOISE          PTCLDY    34  22  61 S6        30.03S WCI  29
CALDWELL       PTCLDY    37  19  48 NW5       30.05S WCI  34
MOUNTAIN HOME  MOCLDY    33  17  52 NW8       30.02S WCI  26
$$

IDZ016-017-161300-
SOUTHCENTRAL IDAHO


CITY           SKY/WX    TMP DP  RH WIND       PRES   REMARKS
BURLEY         MOCLDY    34  24  67 E3        30.00S
JEROME         CLOUDY    37  19  48 SW8       30.01R WCI  31
TWIN FALLS     CLOUDY    41  14  33 SW16      30.00S
$$

IDZ019>023-161300-
SOUTHEAST IDAHO


CITY           SKY/WX    TMP DP  RH WIND       PRES   REMARKS
IDAHO FALLS    PTCLDY    26  16  65 SW3       30.00R
POCATELLO      CLEAR     28  17  63 CALM      30.02R
REXBURG        CLEAR     27  16  63 NE8       30.00R WCI  19
$$

IDZ006-010-011-018-031-032-161300-
CENTRAL IDAHO MOUNTAINS


CITY           SKY/WX    TMP DP  RH WIND       PRES   REMARKS
MCCALL         PTCLDY    25  18  74 CALM      30.00S
HAILEY         CLOUDY    32  10  40 NW6       30.00S WCI  26
STANLEY          N/A     15   9  76 S3        30.02S
SALMON         PTCLDY    27  18  69 CALM      30.02S
CHALLIS        MOCLDY    28  13  53 VRB3      30.02S
$$

IDZ002-004-006-007-026-161300-
NORTHERN IDAHO


CITY           SKY/WX    TMP DP  RH WIND       PRES   REMARKS
LEWISTON       PTCLDY    43  24  47 S5        30.04R
LOWELL           N/A     38  36  92 NW3       30.10S
COEUR D`ALENE  MOCLDY    39  30  70 S9        29.99R WCI  33
MULLAN PASS    MOCLDY    25  21  85 SW9       29.92R WCI  15
$$



USA.gov is the U.S. government's official web portal to all federal, state and local government web resources and services.